When you browse on this site, cookies collect data to enhance your experience and personalize the content and advertising you see.
Visit our Privacy Policy to learn more. By continuing to use the site, you agree to this use of cookies and data.
EN

Hourly Weather Vysokiy Most

Today, 18 September, Friday

Time Temperature Precipitation Wind Pressure Humidity
00:00 +6°C° 0.2 mm 8 mps 745 mmHg 85%
01:00 +6°C° 0.2 mm 8 mps 745 mmHg 84%
02:00 +6°C° 0 mm 7 mps 746 mmHg 82%
03:00 +6°C° 0 mm 7 mps 746 mmHg 80%
04:00 +6°C° 0 mm 7 mps 747 mmHg 77%
05:00 +6°C° 0 mm 7 mps 747 mmHg 75%
06:00 +6°C° 0 mm 7 mps 748 mmHg 75%
07:00 +6°C° 0 mm 7 mps 748 mmHg 74%
08:00 +7°C° 0 mm 6 mps 749 mmHg 72%
09:00 +8°C° 0 mm 6 mps 750 mmHg 70%
10:00 +8°C° 0 mm 6 mps 750 mmHg 68%
11:00 +9°C° 0 mm 6 mps 751 mmHg 66%
12:00 +10°C° 0 mm 6 mps 751 mmHg 61%
13:00 +11°C° 0 mm 6 mps 751 mmHg 57%
14:00 +13°C° 0 mm 6 mps 751 mmHg 53%
15:00 +13°C° 0 mm 5 mps 751 mmHg 54%
16:00 +12°C° 0 mm 4 mps 751 mmHg 56%
17:00 +12°C° 0 mm 3 mps 751 mmHg 57%
18:00 +12°C° 0 mm 3 mps 751 mmHg 60%
19:00 +11°C° 0 mm 4 mps 751 mmHg 64%
20:00 +10°C° 0 mm 4 mps 751 mmHg 67%
21:00 +10°C° 0 mm 4 mps 751 mmHg 70%
22:00 +10°C° 0 mm 4 mps 751 mmHg 74%
23:00 +9°C° 0 mm 5 mps 751 mmHg 77%

Tomorrow, 19 September, Saturday

Time Temperature Precipitation Wind Pressure Humidity
00:00 +10°C° 0 mm 4 mps 751 mmHg 78%
01:00 +11°C° 0 mm 4 mps 751 mmHg 78%
02:00 +11°C° 0 mm 4 mps 751 mmHg 79%
03:00 +10°C° 0 mm 4 mps 751 mmHg 84%
04:00 +8°C° 0 mm 4 mps 751 mmHg 90%
05:00 +8°C° 0 mm 3 mps 751 mmHg 96%
06:00 +9°C° 0 mm 3 mps 751 mmHg 90%
07:00 +8°C° 0 mm 4 mps 751 mmHg 83%
08:00 +10°C° 0 mm 4 mps 752 mmHg 77%
09:00 +11°C° 0 mm 4 mps 752 mmHg 70%
10:00 +12°C° 0 mm 5 mps 752 mmHg 64%
11:00 +13°C° 0 mm 5 mps 752 mmHg 57%
12:00 +14°C° 0 mm 5 mps 752 mmHg 56%
13:00 +14°C° 0 mm 5 mps 752 mmHg 55%
14:00 +14°C° 0 mm 5 mps 752 mmHg 54%
15:00 +14°C° 0 mm 5 mps 752 mmHg 57%
16:00 +13°C° 0 mm 4 mps 752 mmHg 61%
17:00 +12°C° 0 mm 4 mps 752 mmHg 64%
18:00 +11°C° 0 mm 4 mps 752 mmHg 66%
19:00 +10°C° 0 mm 3 mps 752 mmHg 69%
20:00 +9°C° 0 mm 3 mps 753 mmHg 71%
21:00 +9°C° 0 mm 3 mps 753 mmHg 70%
22:00 +9°C° 0 mm 3 mps 753 mmHg 69%
23:00 +9°C° 0 mm 2 mps 753 mmHg 68%

Day after tomorrow, 20 September, Sunday

Time Temperature Precipitation Wind Pressure Humidity
00:00 +9°C° 0 mm 2 mps 753 mmHg 75%
01:00 +8°C° 0 mm 3 mps 754 mmHg 81%
02:00 +7°C° 0 mm 3 mps 754 mmHg 88%
03:00 +6°C° 0 mm 2 mps 754 mmHg 90%
04:00 +6°C° 0 mm 2 mps 754 mmHg 93%
05:00 +5°C° 0 mm 2 mps 754 mmHg 96%
06:00 +6°C° 0 mm 2 mps 754 mmHg 91%
07:00 +7°C° 0 mm 2 mps 754 mmHg 85%
08:00 +8°C° 0 mm 2 mps 755 mmHg 80%
09:00 +10°C° 0 mm 2 mps 755 mmHg 73%
10:00 +11°C° 0 mm 3 mps 754 mmHg 65%
11:00 +13°C° 0 mm 3 mps 754 mmHg 58%
12:00 +14°C° 0 mm 3 mps 754 mmHg 57%
13:00 +14°C° 0 mm 3 mps 754 mmHg 56%
14:00 +16°C° 0 mm 3 mps 754 mmHg 55%
15:00 +14°C° 0 mm 3 mps 754 mmHg 59%
16:00 +15°C° 0 mm 2 mps 753 mmHg 63%
17:00 +14°C° 0 mm 2 mps 753 mmHg 66%
18:00 +13°C° 0 mm 2 mps 753 mmHg 72%
19:00 +10°C° 0 mm 2 mps 753 mmHg 78%
20:00 +9°C° 0 mm 2 mps 753 mmHg 85%
21:00 +9°C° 0 mm 3 mps 753 mmHg 82%
22:00 +9°C° 0 mm 3 mps 752 mmHg 79%
23:00 +9°C° 0 mm 3 mps 752 mmHg 76%

21 September, Monday

Time Temperature Precipitation Wind Pressure Humidity
00:00 +10°C° 0 mm 3 mps 752 mmHg 76%
01:00 +10°C° 0 mm 3 mps 752 mmHg 75%
02:00 +10°C° 0 mm 4 mps 752 mmHg 75%
03:00 +10°C° 0 mm 3 mps 751 mmHg 79%
04:00 +10°C° 0 mm 3 mps 751 mmHg 83%
05:00 +9°C° 0 mm 3 mps 751 mmHg 87%
06:00 +10°C° 0 mm 3 mps 751 mmHg 88%
07:00 +10°C° 0 mm 3 mps 751 mmHg 88%
08:00 +11°C° 0 mm 3 mps 751 mmHg 89%
09:00 +12°C° 0 mm 3 mps 751 mmHg 84%
10:00 +13°C° 0 mm 3 mps 751 mmHg 80%
11:00 +16°C° 0 mm 3 mps 751 mmHg 75%
12:00 +16°C° 0 mm 3 mps 751 mmHg 73%
13:00 +17°C° 0 mm 3 mps 751 mmHg 70%
14:00 +18°C° 0 mm 2 mps 750 mmHg 67%
15:00 +17°C° 0 mm 2 mps 750 mmHg 71%
16:00 +18°C° 0 mm 1 mps 750 mmHg 74%
17:00 +16°C° 0 mm 1 mps 750 mmHg 78%
18:00 +15°C° 0 mm 1 mps 750 mmHg 83%
19:00 +14°C° 0 mm 2 mps 750 mmHg 88%
20:00 +12°C° 0 mm 2 mps 750 mmHg 93%
21:00 +12°C° 0 mm 2 mps 749 mmHg 93%
22:00 +11°C° 0 mm 3 mps 749 mmHg 93%
23:00 +11°C° 0 mm 3 mps 749 mmHg 94%

22 September, Tuesday

Time Temperature Precipitation Wind Pressure Humidity
00:00 +11°C° 0 mm 3 mps 749 mmHg 93%
01:00 +11°C° 0 mm 3 mps 748 mmHg 92%
02:00 +11°C° 0 mm 4 mps 748 mmHg 92%
03:00 +11°C° 0 mm 4 mps 748 mmHg 89%
04:00 +11°C° 0 mm 4 mps 748 mmHg 86%
05:00 +10°C° 0 mm 4 mps 747 mmHg 83%
06:00 +11°C° 0 mm 4 mps 747 mmHg 80%
07:00 +11°C° 0 mm 4 mps 747 mmHg 77%
08:00 +12°C° 0 mm 5 mps 748 mmHg 73%
09:00 +14°C° 0 mm 5 mps 747 mmHg 67%
10:00 +15°C° 0 mm 5 mps 747 mmHg 61%
11:00 +17°C° 0 mm 5 mps 747 mmHg 55%
12:00 +19°C° 0 mm 5 mps 747 mmHg 53%
13:00 +20°C° 0 mm 5 mps 746 mmHg 51%
14:00 +20°C° 0 mm 5 mps 746 mmHg 49%
15:00 +20°C° 0 mm 4 mps 746 mmHg 55%
16:00 +19°C° 0 mm 3 mps 745 mmHg 61%
17:00 +18°C° 0 mm 3 mps 745 mmHg 66%
18:00 +17°C° 0 mm 3 mps 745 mmHg 72%
19:00 +14°C° 0 mm 3 mps 745 mmHg 77%
20:00 +13°C° 0 mm 3 mps 745 mmHg 83%
21:00 +13°C° 0 mm 3 mps 744 mmHg 83%
22:00 +13°C° 0 mm 3 mps 744 mmHg 83%
23:00 +13°C° 0 mm 4 mps 744 mmHg 84%

23 September, Wednesday

Time Temperature Precipitation Wind Pressure Humidity
00:00 +13°C° 0 mm 4 mps 744 mmHg 83%
01:00 +13°C° 0 mm 4 mps 743 mmHg 83%
02:00 +13°C° 0 mm 4 mps 743 mmHg 83%
03:00 +13°C° 0 mm 4 mps 743 mmHg 83%
04:00 +13°C° 0 mm 4 mps 743 mmHg 82%
05:00 +13°C° 0 mm 4 mps 742 mmHg 82%
06:00 +14°C° 0 mm 4 mps 742 mmHg 80%
07:00 +14°C° 0 mm 4 mps 742 mmHg 78%
08:00 +15°C° 0 mm 5 mps 742 mmHg 75%
09:00 +17°C° 0 mm 5 mps 742 mmHg 71%
10:00 +19°C° 0 mm 5 mps 742 mmHg 66%
11:00 +21°C° 0 mm 5 mps 742 mmHg 61%
12:00 +21°C° 0 mm 5 mps 742 mmHg 59%
13:00 +22°C° 0 mm 5 mps 742 mmHg 57%
14:00 +23°C° 0 mm 5 mps 742 mmHg 55%
15:00 +22°C° 0 mm 4 mps 742 mmHg 60%
16:00 +21°C° 0 mm 3 mps 742 mmHg 65%
17:00 +20°C° 0 mm 3 mps 742 mmHg 69%
18:00 +19°C° 0 mm 3 mps 742 mmHg 74%
19:00 +18°C° 0 mm 3 mps 742 mmHg 78%
20:00 +17°C° 0 mm 3 mps 742 mmHg 83%
21:00 +17°C° 0 mm 3 mps 742 mmHg 84%
22:00 +16°C° 0 mm 3 mps 742 mmHg 85%
23:00 +16°C° 0 mm 3 mps 741 mmHg 86%
Show more